Location: Newark
(27.9675°N, 86.8869°E)
Time: 23:29:23
(UTC+00:00)

deb Explorer IX - Pass Details

Date: 24 October 2019
Orbit: 546 x 1105 km, 38.8° (Epoch: 13 November)

Event Time Altitude Azimuth Distance (km) Brightness Sun altitude
Rises 04:49:38 0° 242° (WSW) 2,757 ? 47.2°
Reaches altitude 10° 04:51:47 10° 243° (WSW) 1,905 ? 47.4°
Maximum altitude 04:56:09 83° 331° (NNW) 646 ? 47.8°
Drops below altitude 10° 05:01:12 10° 59° (ENE) 2,191 ? 48.2°
Sets 05:03:49 0° 61° (ENE) 3,210 ? 48.4°
